Other Public Products
Issued by NWS Grand Forks, ND

Home | Current Version | Previous Version | Graphics & Text | Print | Product List | Glossary On
Versions: 1 2 3 4 5 6 7 8 9 10 11 12 13 14 15 16 17 18 19 20 21 22 23 24 25 26 27 28 29 30 31 32 33 34 35 36 37 38 39 40 41 42 43 44 45 46 47 48 49 50
000
FPUS83 KFGF 040010
OPUFGF
PRAIRIE TO PINES WEATHER ROUNDUP
NATIONAL WEATHER SERVICE EASTERN NORTH DAKOTA/GRAND FORKS ND
600 PM CST SAT DEC 03 2016

 **SATELLITE DATA USED TO AUGMENT SKY COVER AT AUTOMATED STATIONS**
 *****  WEATHER ACROSS EASTERN NORTH DAKOTA  *****

CITY           SKY/WX    TMP DP  RH WIND       PRES   REMARKS
GRAND FORKS    CLOUDY    31  24  75 SE14      30.01F WCI  21
6HR MIN TEMP:  29; 6HR MAX TEMP:  31;

GRAND FORKS AF CLOUDY    31  26  81 S15       30.00F WCI  20
GRAND CITY NWS   N/A     30 N/A N/A SE10        N/A  WCI  21
BUXTON         NOT AVBL
DEVILS LAKE    CLOUDY    30  28  92 S17G24    29.90F WCI  18
6HR MIN TEMP:  29; 6HR MAX TEMP:  32;

FARGO          LGT SNOW  32  28  85 SE18G25   30.02F FOG     WCI  20
6HR MIN TEMP:  30; 6HR MAX TEMP:  33; 6HR PCP: TRACE;

WAHPETON ARPT  CLOUDY    32  28  86 SE17G24   30.04F WCI  21
$$

 *****  WEATHER ACROSS CENTRAL AND WESTERN NORTH DAKOTA  *****

CITY           SKY/WX    TMP DP  RH WIND       PRES   REMARKS
JAMESTOWN      CLOUDY    32  30  92 SE13      29.91F WCI  22
6HR MIN TEMP:  30; 6HR MAX TEMP:  33; 6HR PCP: TRACE;

BISMARCK       CLOUDY    26  24  92 CALM      29.87S
6HR MIN TEMP:  21; 6HR MAX TEMP:  31;

MINOT          LGT SNOW  27  24  89 SE12      29.78F FOG     WCI  17
6HR MIN TEMP:  27; 6HR MAX TEMP:  29; 6HR PCP: TRACE;

MINOT AFB      MIX PCPN  26  24  92 S12       29.78F WCI  16
6HR MIN TEMP:  25; 6HR MAX TEMP:  27; 6HR PCP: TRACE;

GARRISON         N/A     26  23  88 S10       29.80F WCI  16
6HR MIN TEMP:  25; 6HR MAX TEMP:  27; 6HR PCP:  0.02;

WILLISTON      CLOUDY    32  30  92 SW7       29.75S
6HR MIN TEMP:  28; 6HR MAX TEMP:  34; 6HR PCP:  0.03;

DICKINSON      CLOUDY    28  23  81 S13       29.75F WCI  17
6HR MIN TEMP:  22; 6HR MAX TEMP:  31;

HETTINGER      MOCLDY    27  22  81 W5        29.83S WCI  22
6HR MIN TEMP:  23; 6HR MAX TEMP:  32;

$$

 *****  OTHER OBSERVATIONS NORTHEAST NORTH DAKOTA  *****

CITY           SKY/WX    TMP DP  RH WIND       PRES   REMARKS
WALHALLA         N/A     28  28 100 SE16G23   29.97S WCI  17
LANGDON        LGT SNOW  28  27  93 SE23      29.91F WCI  14
CAVALIER         N/A     28  27  93 SE14      29.98F WCI  17
GRAFTON        CLOUDY    30  27  86 SE15      30.02F WCI  19
CANDO          CLOUDY    32  30  93 SE18G24   29.90S WCI  20
FORT TOTTEN      N/A     30  30  99 S14       29.95S WCI  19
ROLLA          CLOUDY    28  28 100 S16G24    29.84F WCI  17
RUGBY            N/A     27  27 100 S14       29.84S WCI  15
 ***** THE ABOVE OBSERVATIONS ARE NON NWS ARE NOT QUALITY
        CONTROLLED AND MAY MIS-REPORT RAIN FOR SNOW...
$$

 *****  OTHER OBSERVATIONS SOUTHEAST NORTH DAKOTA *****

CITY           SKY/WX    TMP DP  RH WIND       PRES   REMARKS
COOPERSTOWN    LGT SNOW  30  28  93 SE18      29.94F WCI  18
VALLEY CITY    FLURRIES  30  30 100 SE12G21   29.97F WCI  21
OAKES          NOT AVBL
GWINNER          N/A     32  32 100 SE16      29.98F WCI  21
SHEYENNE NWR     N/A     31  29  94 SE13      29.95S WCI  21
BUFFALO        NOT AVBL
WYNDMERE       NOT AVBL
 ***** THE ABOVE OBSERVATIONS ARE NON NWS ARE NOT QUALITY
       CONTROLLED AND MAY MIS-REPORT RAIN FOR SNOW...
$$

  *****  WEATHER ACROSS NORTHERN MINNESOTA  *****

CITY           SKY/WX    TMP DP  RH WIND       PRES   REMARKS
FLAG ISLAND    CLOUDY    27  21  80 SE20G26   30.08S WCI  13
WARROAD        CLOUDY    27  21  80 SE13      30.08F WCI  16
ROSEAU         MOCLDY    27  21  80 SE8       30.06F WCI  18
HALLOCK        MOCLDY    27  23  86 SE13      30.02S WCI  16
THF RVR FALLS    N/A    N/A N/A N/A MISG        N/A
6HR MIN TEMP:  24; 6HR MAX TEMP:  29;

HALSTAD          N/A     31  27  85 S16         N/A  WCI  19
FOSSTON        CLEAR     23  18  80 SE8       30.06F WCI  14
BAUDETTE       NOT AVBL
WASKISH        CLOUDY    25  19  80 SE6       30.12S WCI  18
CROOKSTON      CLOUDY    28  23  80 SE13      30.04F WCI  18
$$
  *****  WEATHER ACROSS CENTRAL AND WEST MINNESOTA  *****

CITY           SKY/WX    TMP DP  RH WIND       PRES   REMARKS
BEMIDJI        PTCLDY    24  19  80 SE13      30.10S WCI  12
PARK RAPIDS    CLOUDY    27  17  66 SE13      30.09F WCI  16
6HR MIN TEMP:  25; 6HR MAX TEMP:  27;

WADENA         LGT SNOW  27  25  93 SE10      30.11S WCI  17
DETROIT LAKES  LGT SNOW  30  28  93 SE14      30.07S WCI  20
MOORHEAD       LGT RAIN  30  28  93 SE17G24   30.04F WCI  18
FERGUS FALLS   LGT SNOW  30  30 100 SE15G23   30.10F WCI  19
ELBOW LAKE     FLURRIES  30  28  93 E13       30.07F WCI  20
MORRIS MN      LGT SNOW  32  30  93 SE14      30.07F WCI  22
STAPLES        LGT SNOW  27  21  80 SE8       30.13S WCI  18
WHEATON        LGT SNOW N/A N/A N/A SE16      30.06F
$$
  *****  WEATHER ELSEWHERE ACROSS MINNESOTA  *****

CITY           SKY/WX    TMP DP  RH WIND       PRES   REMARKS
DULUTH         CLOUDY    29  21  72 S9        30.18S WCI  20
6HR MIN TEMP:  27; 6HR MAX TEMP:  29; 6HR PCP: TRACE;

INTRNTL FALLS  CLOUDY    26  19  74 SE6       30.13F WCI  19
6HR MIN TEMP:  26; 6HR MAX TEMP:  27;

ELY            CLOUDY    27  21  80 S6        30.16F WCI  20
CLOQUET        CLOUDY    28  18  64 S8        30.18F WCI  20
BRAINERD       CLOUDY    27  20  75 SE8       30.16F WCI  19
6HR MIN TEMP:  26; 6HR MAX TEMP:  28;

HIBBING        CLOUDY    26  19  74 S5        30.16S WCI  20
6HR MIN TEMP:  26; 6HR MAX TEMP:  27;

ALEXANDRIA     CLOUDY    30  27  88 SE12      30.10F WCI  20
6HR MIN TEMP:  27; 6HR MAX TEMP:  30; 6HR PCP: TRACE;

SAINT CLOUD    CLOUDY    30  23  75 SE9       30.18S WCI  22
6HR MIN TEMP:  27; 6HR MAX TEMP:  30;

MINNEAPOLIS    CLOUDY    31  22  69 SE7       30.22F WCI  24
6HR MIN TEMP:  29; 6HR MAX TEMP:  32;

$$

  *****  WEATHER ACROSS SOUTH DAKOTA  *****

CITY           SKY/WX    TMP DP  RH WIND       PRES   REMARKS
SIOUX FALLS    LGT RAIN  35  34  96 S13G22    30.07F
6HR MIN TEMP:  34; 6HR MAX TEMP:  36; 6HR PCP: TRACE;

BROOKINGS      CLOUDY    33  31  92 S21G26    30.02F WCI  21
WATERTOWN      CLOUDY    32  31  96 S18       29.99F WCI  20
6HR MIN TEMP:  31; 6HR MAX TEMP:  34; 6HR PCP: TRACE;

HURON          CLEAR     33  32  96 S16G24    29.96F WCI  23
6HR MIN TEMP:  32; 6HR MAX TEMP:  36; 6HR PCP:  0.01;

SISSETON         N/A     33  31  92 S17       30.00F WCI  22
ABERDEEN       CLOUDY    33  31  92 S15       29.96F WCI  23
6HR MIN TEMP:  32; 6HR MAX TEMP:  36; 6HR PCP: TRACE;

MITCHELL       MOCLDY    35  34  96 S16       29.99F
PIERRE         CLEAR     32  23  69 W10       29.91R WCI  24
6HR MIN TEMP:  28; 6HR MAX TEMP:  38;

MOBRIDGE       CLEAR     31  24  75 MISG      29.87R
RAPID CITY     CLOUDY    36  22  56 CALM      29.91R
6HR MIN TEMP:  36; 6HR MAX TEMP:  44;

$$

  *****  SOME WEATHER IN NEARBY STATES *****

CITY           SKY/WX    TMP DP  RH WIND       PRES   REMARKS
GLASGOW MT     PTCLDY    35  29  78 W16       29.79R
6HR MIN TEMP:  33; 6HR MAX TEMP:  41; 6HR PCP:  0.02;

GREAT FALLS MT CLEAR     31  20  63 W12       29.92S WCI  22
6HR MIN TEMP:  31; 6HR MAX TEMP:  42;

CHEYENNE WY    CLOUDY    29  10  45 N8G18     29.97R WCI  21
6HR MIN TEMP:  29; 6HR MAX TEMP:  36;

SCOTTSBLUFF NE CLOUDY    37  13  37 W14       29.98R
6HR MIN TEMP:  37; 6HR MAX TEMP:  45;

OMAHA NE       LGT SNOW  34  30  85 SE6       30.15F VSB 1
6HR MIN TEMP:  33; 6HR MAX TEMP:  35; 6HR PCP:  0.18;

DES MOINES IA  LGT RAIN  40  33  76 E6        30.20F
6HR MIN TEMP:  40; 6HR MAX TEMP:  42; 6HR PCP:  0.01;

DAVENPORT IA   CLOUDY    34  26  72 CALM      30.27F
6HR MIN TEMP:  34; 6HR MAX TEMP:  38;

CHICAGO IL     CLOUDY    30  24  78 CALM      30.30S
6HR MIN TEMP:  30; 6HR MAX TEMP:  34;

EAU CLAIRE WI  CLOUDY    30  21  69 S8        30.25S WCI  22
6HR MIN TEMP:  30; 6HR MAX TEMP:  31;

LA CROSSE WI   CLOUDY    34  25  69 CALM      30.27S
6HR MIN TEMP:  33; 6HR MAX TEMP:  35;

$$

  *****  SOME NATIONAL WEATHER *****

CITY           SKY/WX    TMP DP  RH WIND       PRES   REMARKS
LA GUARDIA NY  MOCLDY    46  31  55 NW13      30.11R
6HR MIN TEMP:  46; 6HR MAX TEMP:  50;

RALEIGH NC     CLOUDY    45  29  53 CALM      30.25R               C1F1C2F2C3F3C4F4C5F5C6F6C7F7C8F8C9F9CaFaCbFbCcFcCdFdCe!



USA.gov is the U.S. government's official web portal to all federal, state and local government web resources and services.